[[{"header":{"parameterUnit":"m.s-1","parameterCategory":1,"la1":30.2991,"la2":30.254,"lo1":-89.0895,"lo2":-89.0444,"dy":0.0017,"dx":0.0017,"nx":28,"ny":28,"refTime":"2023-10-13T21:00:00:Z","depth":0,"parameterNumber":2,"parameterNumberName":"U-component_of_WINDS"},"data":[0,0,0,0,0,0,0,0,0,0,0,0,0,0,0,0,0,0,0,0,0,0,0,0,0,0,0,0,0,0,0,0,0,0,0,0,0,0,0,0,0,0,0,0,0,0,0,0,0,0,0,0,0,0,0,0,0,0,-1.7903,-1.7903,0,-1.7898,-1.7898,-1.7898,-1.783,-1.7828,-1.7827,-1.7825,-1.782,-1.7821,-1.7823,0,0,0,0,0,0,0,0,0,0,0,0,0,-1.7853,-1.7855,-1.7903,-1.7903,-1.7903,-1.7898,-1.7898,-1.7898,-1.783,-1.7828,-1.7826,-1.7824,-1.7819,-1.7821,-1.7823,0,0,0,0,0,0,0,0,0,0,0,0,0,-1.7864,-1.7855,-1.7903,-1.7868,-1.7865,-1.7898,-1.7898,-1.7898,-1.7831,-1.7828,-1.7826,-1.7823,-1.7819,-1.7821,-1.7823,-1.7888,0,0,-1.783,-1.7831,0,0,0,0,0,0,0,0,-1.7864,-1.7866,-1.7874,-1.7871,-1.7867,-1.7862,-1.7878,-1.7894,-1.7832,-1.7844,-1.7825,-1.7822,-1.7836,-1.7836,-1.7841,-1.7888,-1.7887,-1.783,-1.7831,-1.7832,-1.7833,0,0,0,0,0,0,0,-1.7863,-1.7866,-1.7901,-1.7874,-1.787,-1.7853,-1.7852,-1.7881,-1.7854,-1.7843,-1.7838,-1.7838,-1.7834,-1.7839,-1.7841,-1.7887,-1.783,-1.7832,-1.7833,-1.7834,-1.7987,-1.799,0,0,0,0,0,0,-1.7867,-1.7866,-1.7901,-1.7901,-1.7859,-1.7856,-1.7855,-1.7866,-1.7854,-1.785,-1.784,-1.7835,-1.7837,-1.7838,-1.784,-1.7916,-1.7832,-1.7834,-1.7835,-1.7985,-1.7988,-1.7991,0,0,0,0,0,0,-1.7866,-1.7871,-1.7901,-1.7882,-1.7884,-1.786,-1.7873,-1.7868,-1.7873,-1.7852,-1.7847,-1.7851,-1.7835,-1.7837,-1.7877,-1.7915,-1.7835,-1.7837,-1.7981,-1.7986,-1.799,-1.8068,0,0,0,0,0,0,-1.7865,-1.7871,-1.7896,-1.7883,-1.7886,-1.7938,-1.7876,-1.7869,-1.7877,-1.787,-1.7861,-1.7857,-1.7833,-1.7874,-1.7879,-1.7916,-1.7839,-1.7978,-1.7983,-1.7988,-1.8062,-1.8074,-1.8085,0,0,0,0,0,-1.7864,-1.7917,-1.7897,-1.7902,-1.7916,-1.794,-1.7942,-1.7914,-1.788,-1.7905,-1.7891,-1.7857,-1.791,-1.7878,-1.7884,-1.7922,-1.7975,-1.7982,-1.7988,-1.8057,-1.8072,-1.8085,0,0,0,0,0,0,-1.7935,-1.7915,-1.7892,-1.7944,-1.7944,-1.7929,-1.7959,-1.793,-1.794,-1.7933,-1.7898,-1.7896,-1.7942,-1.7935,-1.7901,-1.7985,-1.7937,-1.7944,-1.7987,-1.8001,-1.8013,-1.8014,-1.7841,0,0,0,0,0,-1.7956,-1.7978,-1.796,-1.8007,-1.8008,-1.7984,-1.7993,-1.7972,-1.7971,-1.7971,-1.796,-1.796,-1.7977,-1.7989,-1.8003,-1.806,-1.8058,-1.809,-1.8101,-1.8111,-1.8118,-1.8149,-1.8163,-1.8012,-1.8011,-1.8011,0,0,-1.8001,-1.7993,-1.8009,-1.8021,-1.8019,-1.8042,-1.7984,-1.8011,-1.8028,-1.7974,-1.8012,-1.8004,-1.8002,-1.8051,-1.8072,-1.8048,-1.8159,-1.8119,-1.8126,-1.8128,-1.8157,-1.8171,-1.8184,-1.8016,-1.8015,-1.8014,0,0,-1.8095,-1.8091,-1.8131,-1.813,-1.8127,-1.8111,-1.812,-1.811,-1.8103,-1.8139,-1.81,-1.8119,-1.8148,-1.8149,-1.8153,-1.8248,-1.8217,-1.8254,-1.8314,-1.8345,-1.8357,-1.8367,-1.8402,-1.8415,-1.8261,-1.8261,-1.8261,0,-1.8152,-1.8185,-1.8154,-1.8184,-1.8191,-1.8143,-1.8183,-1.8183,-1.8186,-1.8192,-1.8164,-1.82,-1.8195,-1.8245,-1.8268,-1.8273,-1.8283,-1.8255,-1.8357,-1.8368,-1.8377,-1.841,-1.8423,-1.8265,-1.8265,-1.8264,-1.8264,0,-1.8255,-1.8279,-1.8311,-1.8315,-1.8325,-1.836,-1.8334,-1.8348,-1.8325,-1.8312,-1.835,-1.8343,-1.8355,-1.8365,-1.8343,-1.8411,-1.8396,-1.8364,-1.8315,-1.8396,-1.8427,-1.8439,-1.8272,-1.827,-1.8269,-1.8268,0,0,-1.8394,-1.8381,-1.8393,-1.8395,-1.8389,-1.8407,-1.844,-1.8452,-1.8465,-1.8468,-1.8495,-1.8521,-1.8491,-1.8496,-1.8473,-1.85,-1.8577,-1.8464,-1.8464,-1.8486,-1.8653,-1.8679,-1.8694,-1.8556,-1.8559,-1.856,-1.8654,0,-1.8486,-1.8541,-1.8514,-1.8573,-1.8595,-1.855,-1.8579,-1.8579,-1.8567,-1.8584,-1.857,-1.859,-1.8548,-1.8551,-1.8576,-1.8563,-1.861,-1.8555,-1.8582,-1.8583,-1.8584,-1.8709,-1.8736,-1.8825,-1.8665,-1.8667,-1.8669,0,-1.86,-1.8609,-1.867,-1.8661,-1.8669,-1.8695,-1.8705,-1.8721,-1.872,-1.871,-1.8716,-1.8687,-1.8719,-1.867,-1.8713,-1.8676,-1.8685,-1.8681,-1.8683,-1.8685,-1.8631,-1.8716,-1.8852,-1.8866,-1.8687,-1.8685,-1.8684,0,-1.8696,-1.8723,-1.8764,-1.8766,-1.8756,-1.8776,-1.8773,-1.8769,-1.8778,-1.8786,-1.8792,-1.8804,-1.881,-1.882,-1.8796,-1.8762,-1.8843,-1.8791,-1.8835,-1.8836,-1.8855,-1.8854,-1.8996,-1.886,-1.8859,-1.8859,-1.8859,0,-1.8802,-1.8841,-1.8807,-1.8832,-1.8875,-1.8843,-1.8887,-1.8879,-1.8876,-1.8898,-1.886,-1.8882,-1.8848,-1.8867,-1.8848,-1.8887,-1.889,-1.8883,-1.8877,-1.8887,-1.8888,-1.8893,-1.8886,-1.8863,-1.8862,-1.8861,-1.8861,0,-1.8917,-1.8896,-1.8937,-1.8924,-1.8922,-1.8955,-1.8944,-1.8966,-1.8952,-1.8981,-1.8986,-1.8964,-1.8984,-1.896,-1.8978,-1.8965,-1.9019,-1.9004,-1.902,-1.9016,-1.9062,-1.9058,-1.9212,-1.9231,-1.9082,-1.9083,-1.9084,0,-1.8987,-1.9016,-1.9007,-1.902,-1.9019,-1.9039,-1.9049,-1.9019,-1.9031,-1.9032,-1.9055,-1.9071,-1.9083,-1.9118,-1.9103,-1.9117,-1.9102,-1.9155,-1.9104,-1.9113,-1.9104,-1.9103,-1.9107,-1.9166,-1.9168,-1.9169,-1.9171,0,-1.9112,-1.91,-1.9116,-1.9128,-1.9141,-1.9148,-1.9153,-1.9166,-1.9135,-1.9149,-1.917,-1.9179,-1.9198,-1.9216,-1.9225,-1.9222,-1.9192,-1.9187,-1.9198,-1.9208,-1.9217,-1.9214,-1.9049,-1.9183,-1.9182,-1.9181,-1.9181,-1.918,-1.9207,-1.9232,-1.923,-1.9248,-1.9249,-1.9254,-1.9275,-1.9264,-1.928,-1.9294,-1.9275,-1.93,-1.9299,-1.9309,-1.9309,-1.9329,-1.9306,-1.9322,-1.9326,-1.9331,-1.9338,-1.9213,-1.933,-1.933,-1.9329,-1.9329,-1.9329,0,-1.9332,-1.9328,-1.9346,-1.9354,-1.9369,-1.9339,-1.9343,-1.9358,-1.9381,-1.9382,-1.9395,-1.9419,-1.9436,-1.9422,-1.9437,-1.9455,-1.9442,-1.946,-1.9459,-1.9459,-1.9357,-1.9346,-1.9471,-1.9471,-1.9471,-1.9471,-1.947,-1.947,-1.9399,-1.9439,-1.9427,-1.9467,-1.9463,-1.9488,-1.9493,-1.9498,-1.9499,-1.9527,-1.9541,-1.9533,-1.9528,-1.9542,-1.9556,-1.9552,-1.9559,-1.9583,-1.9574,-1.9479,-1.9466,-1.9452,-1.9442,-1.9585,-1.9585,-1.9674,-1.9675,-1.9676]},{"header":{"parameterUnit":"m.s-1","parameterCategory":1,"la1":30.2991,"la2":30.254,"lo1":-89.0895,"lo2":-89.0444,"dy":0.0017,"dx":0.0017,"nx":28,"ny":28,"refTime":"2023-10-13T21:00:00:Z","depth":0,"parameterNumber":3,"parameterNumberName":"V-component_of_WINDS"},"data":[0,0,0,0,0,0,0,0,0,0,0,0,0,0,0,0,0,0,0,0,0,0,0,0,0,0,0,0,0,0,0,0,0,0,0,0,0,0,0,0,0,0,0,0,0,0,0,0,0,0,0,0,0,0,0,0,0,0,-3.1513,-3.1513,0,-3.1522,-3.1522,-3.1522,-3.1464,-3.1462,-3.1461,-3.1459,-3.1466,-3.1468,-3.1469,0,0,0,0,0,0,0,0,0,0,0,0,0,-3.1444,-3.1446,-3.1513,-3.1513,-3.1513,-3.1522,-3.1522,-3.1522,-3.1464,-3.1462,-3.146,-3.1458,-3.1466,-3.1468,-3.147,0,0,0,0,0,0,0,0,0,0,0,0,0,-3.1466,-3.1446,-3.1513,-3.1485,-3.1483,-3.1522,-3.1522,-3.1522,-3.1465,-3.1462,-3.146,-3.1457,-3.1465,-3.1467,-3.147,-3.1535,0,0,-3.1478,-3.1479,0,0,0,0,0,0,0,0,-3.1464,-3.1468,-3.1489,-3.1487,-3.1485,-3.1489,-3.15,-3.1526,-3.1465,-3.1472,-3.1459,-3.1456,-3.1476,-3.1477,-3.1484,-3.1535,-3.1536,-3.1478,-3.148,-3.1481,-3.1481,0,0,0,0,0,0,0,-3.1463,-3.1467,-3.1516,-3.149,-3.1487,-3.1472,-3.1472,-3.1505,-3.1487,-3.1471,-3.1467,-3.1469,-3.1474,-3.1482,-3.1484,-3.1536,-3.1478,-3.148,-3.1482,-3.1483,-3.164,-3.1643,0,0,0,0,0,0,-3.1466,-3.1467,-3.1516,-3.1517,-3.1468,-3.1475,-3.1476,-3.149,-3.1487,-3.1484,-3.1471,-3.1466,-3.1479,-3.1481,-3.1484,-3.156,-3.1481,-3.1483,-3.1485,-3.1638,-3.1641,-3.1644,0,0,0,0,0,0,-3.1464,-3.1471,-3.1516,-3.1491,-3.1495,-3.1479,-3.1496,-3.1492,-3.15,-3.1487,-3.1483,-3.1482,-3.1477,-3.148,-3.1523,-3.1559,-3.1484,-3.1487,-3.1635,-3.1639,-3.1642,-3.1712,0,0,0,0,0,0,-3.1463,-3.147,-3.1495,-3.1492,-3.1497,-3.1555,-3.1498,-3.1494,-3.1504,-3.1498,-3.1496,-3.1494,-3.1475,-3.1519,-3.1525,-3.1561,-3.1489,-3.1631,-3.1636,-3.1641,-3.1706,-3.1718,-3.1728,0,0,0,0,0,-3.146,-3.1514,-3.1497,-3.1503,-3.1528,-3.1558,-3.156,-3.1538,-3.1508,-3.1532,-3.1524,-3.1494,-3.1554,-3.1524,-3.153,-3.1568,-3.1629,-3.1635,-3.1641,-3.1702,-3.1716,-3.1728,0,0,0,0,0,0,-3.1522,-3.1513,-3.1494,-3.1548,-3.1554,-3.1548,-3.1578,-3.1554,-3.1568,-3.1562,-3.1533,-3.1533,-3.1581,-3.1578,-3.1545,-3.163,-3.1586,-3.1594,-3.163,-3.1643,-3.1654,-3.1653,-3.1491,0,0,0,0,0,-3.1542,-3.1568,-3.1558,-3.1607,-3.1611,-3.1595,-3.1606,-3.1589,-3.1594,-3.1596,-3.159,-3.1596,-3.1615,-3.1629,-3.1647,-3.1706,-3.1704,-3.1735,-3.1745,-3.1754,-3.1761,-3.1792,-3.1805,-3.1663,-3.1663,-3.1663,0,0,-3.1583,-3.1582,-3.16,-3.162,-3.1622,-3.1649,-3.1597,-3.1627,-3.1646,-3.16,-3.164,-3.1636,-3.164,-3.1691,-3.1713,-3.1691,-3.18,-3.1762,-3.1769,-3.1771,-3.1799,-3.1813,-3.1825,-3.1667,-3.1667,-3.1666,0,0,-3.1673,-3.1674,-3.1715,-3.1719,-3.1724,-3.1712,-3.1722,-3.1719,-3.1715,-3.1755,-3.1721,-3.1743,-3.1778,-3.1783,-3.1789,-3.1881,-3.1853,-3.1887,-3.1943,-3.1973,-3.1984,-3.1994,-3.2027,-3.2039,-3.1894,-3.1894,-3.1894,0,-3.1723,-3.1763,-3.1739,-3.1772,-3.1781,-3.1742,-3.1783,-3.1787,-3.1797,-3.1805,-3.1779,-3.1823,-3.1823,-3.1874,-3.1896,-3.1903,-3.1913,-3.1887,-3.1985,-3.1994,-3.2003,-3.2034,-3.2046,-3.1898,-3.1898,-3.1897,-3.1897,0,-3.1825,-3.1853,-3.1885,-3.1897,-3.191,-3.1947,-3.1928,-3.1944,-3.1926,-3.1917,-3.1958,-3.1956,-3.1973,-3.1984,-3.1966,-3.2033,-3.2019,-3.199,-3.1944,-3.2021,-3.2049,-3.2061,-3.1904,-3.1902,-3.1901,-3.19,0,0,-3.1953,-3.1951,-3.1963,-3.1968,-3.1971,-3.1991,-3.2026,-3.2043,-3.2058,-3.2066,-3.2094,-3.2125,-3.2098,-3.2106,-3.2088,-3.2115,-3.2187,-3.2082,-3.2082,-3.2102,-3.2261,-3.2283,-3.2297,-3.2169,-3.2172,-3.2173,-3.2261,0,-3.204,-3.21,-3.208,-3.214,-3.2165,-3.2128,-3.2158,-3.2163,-3.2156,-3.2175,-3.2167,-3.2189,-3.2152,-3.2157,-3.2182,-3.2173,-3.2219,-3.2167,-3.2195,-3.2196,-3.2195,-3.2312,-3.2335,-3.2417,-3.2272,-3.2273,-3.2275,0,-3.2149,-3.2163,-3.2226,-3.2225,-3.2235,-3.2262,-3.2276,-3.2296,-3.23,-3.2293,-3.2302,-3.2278,-3.2312,-3.2267,-3.2312,-3.2278,-3.2288,-3.2286,-3.2288,-3.229,-3.224,-3.2316,-3.2443,-3.2456,-3.2292,-3.2291,-3.2289,0,-3.2236,-3.227,-3.2313,-3.2318,-3.2317,-3.2337,-3.2338,-3.234,-3.2351,-3.2363,-3.2371,-3.2386,-3.2395,-3.2408,-3.2389,-3.2358,-3.2437,-3.2391,-3.2432,-3.2432,-3.245,-3.2449,-3.258,-3.2457,-3.2457,-3.2457,-3.2456,0,-3.2335,-3.2376,-3.2352,-3.2378,-3.2422,-3.2398,-3.2442,-3.2438,-3.244,-3.2465,-3.2433,-3.2456,-3.243,-3.2451,-3.2437,-3.2477,-3.2481,-3.2475,-3.2471,-3.2478,-3.2479,-3.2484,-3.2478,-3.246,-3.2459,-3.2458,-3.2458,0,-3.244,-3.2426,-3.2469,-3.2465,-3.2465,-3.2498,-3.2494,-3.2517,-3.2508,-3.2539,-3.2545,-3.253,-3.2553,-3.2536,-3.2558,-3.2548,-3.2601,-3.2588,-3.26,-3.2596,-3.2639,-3.2635,-3.2778,-3.2795,-3.2661,-3.2662,-3.2663,0,-3.2504,-3.2534,-3.2534,-3.2548,-3.2551,-3.2575,-3.2586,-3.2564,-3.2578,-3.2585,-3.2608,-3.2628,-3.2643,-3.2682,-3.2672,-3.2689,-3.2677,-3.2726,-3.2679,-3.2686,-3.2678,-3.2676,-3.2679,-3.2735,-3.2737,-3.2738,-3.2739,0,-3.262,-3.2611,-3.263,-3.2647,-3.2662,-3.2674,-3.2683,-3.2697,-3.2674,-3.2691,-3.2714,-3.2726,-3.2749,-3.277,-3.2784,-3.2783,-3.2758,-3.2754,-3.2764,-3.2772,-3.2777,-3.2775,-3.2626,-3.2751,-3.275,-3.2749,-3.2748,-3.2748,-3.2706,-3.2731,-3.2735,-3.2757,-3.2762,-3.2771,-3.2793,-3.2787,-3.2806,-3.2824,-3.2809,-3.2838,-3.2841,-3.2857,-3.286,-3.2881,-3.2861,-3.2876,-3.288,-3.2884,-3.289,-3.2774,-3.2883,-3.2883,-3.2883,-3.2882,-3.2882,0,-3.282,-3.2821,-3.2841,-3.2856,-3.2873,-3.2848,-3.2857,-3.2873,-3.2898,-3.2904,-3.2919,-3.2946,-3.2966,-3.2959,-3.2976,-3.2995,-3.2983,-3.3,-3.2998,-3.2999,-3.2907,-3.2896,-3.3009,-3.3009,-3.3009,-3.3009,-3.3009,-3.3009,-3.2881,-3.2923,-3.2915,-3.2958,-3.2958,-3.2986,-3.2993,-3.3002,-3.3006,-3.3038,-3.3055,-3.305,-3.305,-3.3067,-3.3084,-3.3082,-3.3089,-3.311,-3.3104,-3.3018,-3.3005,-3.2993,-3.2983,-3.3112,-3.3113,-3.3194,-3.3194,-3.3195]}]]